Zurück zum Katalog

STARLINK-36059

AktivKommunikationVLEO
NORAD 66904·PAYLOAD·🇺🇸 United States

Gestartet Dec 4, 2025 von Vandenberg Space Force Base

Loading…

Nächste Überflüge (nächste 24 Stunden)

TLE

AktuellSource: CelesTrak SupGP

Epoche: Sep 15, 2026, 03:38 UTC

1 66904C 25283AC  26258.15187500 -.00063709  00000+0 -18824-2 0  2584
2 66904  53.1574 221.0462 0001452  94.6256 321.2552 15.34420463    16

Verfolge STARLINK-36059 in Echtzeit mit AllMySat

Download on the App Store